Retour au catalogue

ONEWEB-0341

ActifCommunicationsPO
NORAD 49207·PAYLOAD·🇬🇧 United Kingdom

Lancé Sep 14, 2021 depuis Baikonur Cosmodrome

Loading…

Prochains Passages (prochaines 24 heures)

TLE

FraisSource: CelesTrak SupGP

Époque: Sep 14, 2026, 21:50 UTC

1 49207C 21083X   26257.90991157 -.00000910  00000+0 -23107-2 0  2572
2 49207  87.9165 317.6313 0001532 107.7237 289.1628 13.18688659    14

Suivez ONEWEB-0341 en temps réel avec AllMySat

Download on the App Store